Probability
0 0 0 0 0 0 0 0 0 0 0 0 0 0 0 0 0 0 0 0 0 0 0 0 0 0 0 0 0 0 0 0 0 1 1 2 3 2 2 3 4 4 4
0 0 0 0 0 0 0 0 0 0 0 0 0 0 0 0 0 0 0 0 0 0 0 0 0 0 0 0 0 0 0 0 0 1 1 1 2 1 1 2 3 4 3
0 0 0 0 0 0 0 0 0 0 0 0 0 0 0 0 0 0 0 0 0 0 0 0 0 0 0 0 0 0 0 0 0 0 0 0 0 0 0 1 2 2 2
0 0 0 0 0 0 0 0 0 0 0 0 0 0 0 0 0 0 0 0 0 0 0 0 0 0 0 0 0 0 0 0 0 0 1 1 0 0 0 0 1 1 1
0 0 0 0 0 0 0 0 0 0 0 0 0 0 0 0 0 0 0 0 0 0 0 0 0 0 0 0 0 0 0 0 0 1 2 2 1 0 0 0 0 1 1
0 0 0 0 0 0 0 0 0 0 0 0 0 0 0 0 0 0 0 0 0 0 0 0 0 0 0 0 0 0 0 0 1 1 3 2 1 0 0 1 0 0 1
0 0 0 0 0 0 0 0 0 0 0 0 0 0 0 0 0 0 0 0 0 0 0 0 0 0 0 0 0 0 0 0 1 2 3 2 1 0 1 1 0 0 1
0 0 0 0 0 0 0 0 0 0 0 0 0 0 0 0 0 0 0 0 0 0 0 0 0 0 0 0 0 0 0 0 1 1 2 1 0 0 1 1 0 0 0
0 0 0 0 0 0 0 0 0 0 0 0 0 0 0 0 0 0 0 0 0 0 0 0 0 0 0 0 0 0 0 0 0 0 0 0 0 0 1 1 0 0 0
0 0 0 0 0 0 0 0 0 0 0 0 0 0 0 0 0 0 0 0 0 0 0 0 0 0 0 0 0 0 0 0 0 0 0 0 0 0 0 0 0 0 0
0 0 0 0 0 0 0 0 0 0 0 0 0 0 0 0 0 0 0 0 0 0 0 0 0 0 0 0 0 0 0 0 0 0 0 0 0 0 0 0 0 0 0
0 0 0 0 0 0 0 0 0 0 0 0 0 0 0 0 0 0 0 0 0 0 0 0 0 0 0 0 0 0 0 0 0 0 0 0 0 0 0 0 0 0 0
0 0 0 0 0 0 0 0 0 0 0 0 0 0 0 0 0 0 0 0 0 0 0 0 0 0 0 0 0 0 0 0 0 0 0 0 0 0 0 0 0 0 0
0 0 0 0 0 0 0 0 0 0 0 0 0 0 0 0 0 0 0 0 0 0 0 0 0 0 0 0 0 0 0 0 0 0 0 0 0 0 0 0 0 0 0
0 0 0 0 0 0 0 0 0 0 0 0 0 0 0 0 0 0 0 0 0 0 0 0 0 0 0 0 0 0 0 0 0 0 0 0 0 0 0 0 0 0 0
0 0 0 0 0 0 0 0 0 0 0 0 0 0 0 0 0 0 0 0 0 0 0 0 0 0 0 0 0 0 0 0 0 0 0 0 0 0 0 0 0 0 0
0 0 0 0 0 0 0 0 0 0 0 0 0 0 0 0 0 0 0 0 0 0 0 0 0 0 0 0 0 0 0 0 0 0 0 0 0 0 0 0 0 0 0
0 0 0 0 0 0 0 0 0 0 0 0 0 0 0 0 0 0 0 0 0 0 0 0 0 0 0 0 0 0 0 0 0 0 0 0 0 0 0 0 0 0 0
0 0 0 0 0 0 0 0 0 0 0 0 0 0 0 0 0 0 0 0 0 0 0 0 0 0 0 0 0 0 0 0 0 0 0 0 0 0 0 0 0 0 0
0 0 0 0 0 0 0 0 0 0 0 0 0 0 0 0 0 0 0 0 0 0 0 0 0 0 0 0 0 0 0 0 0 0 0 0 0 0 0 0 0 0 0
0 0 0 0 0 0 0 0 0 0 0 0 0 0 0 0 0 0 0 0 0 0 0 0 0 0 0 0 0 0 0 0 0 0 0 0 0 0 0 0 0 0 0
0 0 0 0 0 0 0 0 0 0 0 0 0 0 0 0 0 0 0 0 0 0 0 0 0 0 0 0 0 0 0 0 0 0 0 0 0 0 0 0 0 0 0
0 0 0 0 0 0 0 0 0 0 0 0 0 0 0 0 0 0 0 0 0 0 0 0 0 0 0 0 0 0 0 0 0 0 0 0 0 0 0 0 0 0 0
0 0 0 0 0 0 0 0 0 0 0 0 0 0 0 0 0 0 0 0 0 0 0 0 0 0 0 0 0 0 0 0 0 0 0 0 0 0 0 0 0 0 0
0 0 0 0 0 0 0 0 0 0 0 0 0 0 0 0 0 0 0 0 0 0 0 0 0 0 0 0 0 0 0 0 0 0 0 0 0 0 0 0 0 0 0
0 0 0 0 0 0 0 0 0 0 0 0 0 0 0 0 0 0 0 0 0 0 0 0 0 0 0 0 0 0 0 0 0 0 0 0 0 0 0 0 0 0 0
Wind_Speed
2 2 1 1 1 1 1 1 1 2 2 1 2 2 1 1 0 0 1 1 1 0 1 1 1 1 2 3 3 2 1 2 3 2 2 2 2 2 2 2 2 1 1
3 2 2 1 1 1 1 2 2 2 2 1 1 1 1 0 0 0 0 1 2 1 1 1 1 1 1 3 3 2 2 1 3 2 2 2 2 2 1 1 0 1 0
3 3 2 2 2 1 2 2 2 2 1 1 1 1 1 0 0 1 1 1 1 2 1 2 2 1 1 2 3 3 3 3 3 3 3 3 2 2 2 1 1 1 0
4 3 3 2 2 2 2 2 2 2 1 1 0 0 0 0 0 0 1 1 1 1 2 2 3 2 3 3 3 3 3 4 3 4 3 3 3 3 2 2 2 1 1
4 4 3 3 3 2 2 2 2 2 2 1 0 0 1 0 1 1 1 1 1 1 1 2 3 3 3 3 4 4 4 4 3 4 4 4 3 3 3 2 1 1 1
4 4 3 3 3 2 2 2 2 1 2 2 1 1 1 1 1 1 1 1 1 1 1 1 1 2 3 3 3 4 5 5 4 4 4 4 4 4 3 2 2 2 2
4 4 3 3 4 3 4 3 2 2 1 1 2 1 2 1 1 1 1 1 2 2 1 1 1 1 2 3 3 4 5 5 5 5 5 4 4 5 4 3 4 3 4
3 4 4 4 4 3 4 4 3 2 1 2 2 1 1 2 2 2 1 2 2 2 2 2 1 1 1 1 3 3 3 4 5 6 5 5 5 5 5 4 4 4 5
3 3 4 4 4 4 4 5 5 5 3 2 2 3 3 3 2 2 2 2 2 2 2 2 2 2 1 1 1 3 4 4 3 3 4 4 5 5 5 5 5 5 6
3 3 3 4 4 4 4 5 5 3 4 3 2 1 2 2 2 2 3 2 2 3 3 2 2 2 2 1 2 3 3 3 3 3 3 3 4 4 5 5 6 7 7
3 3 3 3 3 4 4 5 4 4 4 4 3 2 1 1 1 2 3 3 3 3 3 3 2 2 2 2 2 2 3 3 3 4 4 4 5 5 6 6 7 8 7
3 3 3 3 3 3 4 5 5 6 5 4 4 3 3 3 3 3 3 3 3 3 3 3 3 3 2 2 2 3 4 4 4 4 5 5 6 6 7 8 9 9 9
3 4 4 4 4 4 4 4 5 5 6 6 5 4 4 3 2 2 2 2 2 2 2 3 3 2 2 2 2 4 4 5 5 5 6 6 7 7 8 9 9 9 10
4 4 5 5 5 4 4 4 4 5 4 6 6 5 4 3 3 3 3 2 2 2 2 4 2 3 2 2 2 3 3 5 6 6 7 7 7 8 8 9 10 10 10
3 4 5 5 5 4 4 4 4 5 5 5 5 5 4 3 3 3 3 3 3 3 4 4 3 2 2 1 2 2 2 5 6 7 7 7 8 8 9 9 10 11 11
4 4 5 5 4 4 4 4 4 3 4 5 4 4 5 3 3 3 3 3 3 4 4 3 3 1 1 1 3 2 3 5 6 7 7 7 7 8 9 9 11 11 12
4 5 5 5 5 5 5 4 4 4 5 5 4 5 5 4 3 3 3 3 3 3 5 3 2 1 1 2 2 2 2 3 3 6 7 7 8 8 9 10 10 11 11
4 5 4 4 5 5 5 5 6 5 6 6 5 5 5 4 5 4 4 4 4 4 4 4 2 1 2 2 2 2 2 3 3 6 7 7 8 9 9 10 10 10 10
4 4 4 4 5 5 5 5 6 5 5 6 5 6 6 5 5 4 4 4 4 3 3 3 3 1 1 1 1 2 2 2 3 4 6 7 9 9 9 9 9 9 9
3 3 4 4 4 4 4 4 5 5 4 4 4 5 5 5 6 5 5 5 4 3 3 3 3 2 1 1 1 2 3 2 3 3 5 6 7 8 8 9 9 9 9
2 2 3 3 4 4 4 4 4 4 4 4 4 5 5 6 7 6 4 4 4 4 3 3 3 2 2 1 2 2 3 3 3 2 3 3 3 3 4 7 8 9 10
1 2 2 3 3 3 5 6 5 4 4 4 4 4 4 5 6 7 7 6 6 5 5 4 4 4 4 3 2 2 2 1 3 1 2 4 2 4 3 3 7 10 10
1 1 2 2 2 3 5 6 7 4 4 4 4 4 3 3 4 4 5 5 4 5 6 5 5 6 5 4 3 4 3 3 4 2 1 4 2 4 3 4 9 10 11
1 2 2 2 2 3 4 4 5 4 3 3 3 3 4 3 3 3 3 3 3 3 4 4 5 5 3 3 4 4 4 3 2 2 1 3 2 3 4 4 8 10 10
1 1 1 1 1 2 3 4 3 2 2 2 2 2 3 3 4 4 3 3 3 2 3 3 3 3 3 3 2 2 2 2 2 2 1 2 2 3 3 4 5 8 9
1 1 1 1 1 2 3 3 3 1 2 2 1 2 3 4 4 4 3 3 3 3 1 1 2 2 2 3 3 3 4 3 2 2 2 2 1 1 3 3 3 3 4
Wind_Direction
150 149 148 141 130 122 134 145 143 131 120 108 102 105 89 63 51 8 320 348 340 172 202 186 182 182 182 179 169 171 166 174 160 148 159 149 126 110 101 76 61 63 66
159 161 157 152 148 149 150 140 133 137 135 121 101 96 102 77 50 34 330 325 326 331 287 231 227 227 224 202 190 195 202 204 188 179 186 172 155 153 153 135 50 26 27
165 163 164 168 171 166 151 132 126 109 112 114 106 86 91 79 50 30 5 351 327 323 310 271 269 261 272 246 230 226 214 206 207 191 186 182 181 194 194 206 234 254 244
168 164 167 181 178 170 162 151 144 125 116 107 79 352 328 1 8 355 0 347 330 314 302 296 292 283 275 273 270 253 235 216 217 190 178 184 193 200 206 219 240 245 258
177 173 177 185 171 167 170 164 148 142 151 154 152 333 306 294 284 307 315 311 309 306 288 296 305 305 291 280 277 265 252 231 224 199 189 197 199 198 206 206 224 239 265
183 181 182 184 170 165 171 163 153 144 161 163 125 359 310 294 296 269 265 283 290 284 285 291 294 308 314 302 283 272 261 238 229 220 204 197 198 204 208 213 234 251 262
187 188 190 186 179 179 183 174 154 152 145 123 88 1 330 321 292 271 270 270 278 274 279 270 254 267 297 301 297 280 268 251 233 236 215 206 212 218 220 225 240 253 262
196 199 197 195 190 184 181 178 162 161 163 160 137 122 333 320 298 265 263 252 265 273 267 266 248 238 242 275 283 278 281 274 253 232 218 219 222 227 232 237 248 259 263
203 201 201 199 197 191 193 192 183 174 179 197 176 158 163 222 279 292 266 256 264 261 263 272 257 244 237 238 260 270 269 279 286 262 246 233 234 239 242 248 257 265 268
209 205 201 202 205 200 197 197 193 187 172 188 205 219 197 168 174 275 297 282 267 253 253 259 260 252 233 225 240 259 271 278 280 271 275 267 257 260 262 267 271 267 265
220 214 208 206 212 211 207 201 197 194 190 187 186 181 187 212 182 188 254 280 288 263 251 249 254 254 243 225 223 242 252 253 263 268 273 274 268 268 271 274 276 274 273
222 224 218 218 220 216 215 213 207 203 203 198 196 189 181 184 194 192 221 242 259 267 258 250 247 249 245 230 234 246 239 247 252 256 261 269 273 272 269 268 271 273 273
222 224 219 219 222 222 217 214 210 213 207 204 204 209 209 208 184 183 192 229 252 272 276 260 242 237 241 228 230 243 243 251 250 252 257 262 267 270 269 268 270 272 272
220 218 216 220 221 217 215 213 215 217 212 213 214 210 215 216 199 194 184 182 243 266 259 259 259 235 235 222 243 245 246 252 251 253 256 259 263 268 268 271 272 270 271
215 211 213 218 221 216 214 212 220 220 215 217 218 215 218 220 209 207 196 187 193 240 253 242 245 245 229 219 253 245 254 264 260 258 259 261 264 269 269 269 271 271 272
215 209 214 215 215 213 211 211 221 222 218 221 215 216 222 220 212 209 205 207 206 217 248 246 233 254 230 251 256 246 246 265 263 266 269 270 270 274 274 274 272 271 272
215 213 214 214 213 210 209 212 221 218 222 226 221 218 223 213 214 214 209 211 217 210 243 265 253 260 224 241 276 268 265 257 268 273 273 271 272 274 277 277 275 275 276
219 213 209 208 210 211 209 211 220 222 221 226 224 222 226 218 218 216 215 220 221 216 222 250 261 251 241 241 258 268 274 271 273 276 272 270 275 281 282 279 277 277 280
223 211 205 209 214 216 215 217 221 224 224 227 223 220 223 217 223 223 221 223 223 225 219 229 256 259 254 267 282 285 279 280 280 278 272 272 277 281 280 280 281 281 284
227 214 215 218 218 215 217 220 223 223 225 230 227 224 221 218 223 222 221 221 216 219 219 222 238 259 262 265 239 270 286 284 287 291 274 280 280 279 278 282 285 285 284
233 227 222 225 224 218 217 216 220 220 221 228 231 231 228 225 224 222 222 216 207 215 216 221 231 244 246 242 239 237 264 293 291 269 291 287 284 277 273 279 281 281 281
244 233 231 229 228 229 226 219 215 218 222 224 232 236 233 228 231 230 230 221 211 213 217 218 227 231 237 237 237 227 244 282 278 261 277 281 265 264 269 267 278 280 280
255 244 246 239 239 245 239 229 220 211 218 225 230 233 236 235 228 229 232 227 226 234 225 221 230 235 236 225 212 220 222 232 247 251 245 268 262 268 278 277 279 279 282
269 253 256 253 250 264 260 247 229 217 221 230 234 233 231 235 226 217 213 216 229 242 243 236 236 243 241 219 207 215 219 239 279 266 208 257 276 278 292 285 277 275 282
288 284 280 267 261 276 265 253 237 220 224 238 238 230 224 231 230 219 206 216 238 259 268 250 258 260 249 229 195 168 186 203 257 253 211 239 277 296 291 278 280 285 290
290 304 316 318 294 292 287 271 243 208 226 248 251 242 235 233 231 216 204 206 235 254 252 278 271 272 254 235 219 206 201 206 220 250 216 212 259 311 301 282 283 293 294